(209560) = 2004 XC7

Discovered at Socorro on 2004-12-02 by LINEAR.

Orbit

Orbit type: Main Belt

Note: WebGL enabled browser required.

epoch2024-03-31.0
epoch JD2460400.5
perihelion date2022-12-22.19727
perihelion JD2459935.69727
argument of perihelion (°)50.58664
ascending node (°)21.07281
inclination (°)2.69255
eccentricity0.1661107
perihelion distance (AU)1.9647402
Tisserand w.r.t. Jupiter3.5
ΔV w.r.t. Earth (km/sec)8.8
semimajor axis (AU)2.3561163
mean anomaly (°)126.67114
mean daily motion (°/day)0.27252670
aphelion distance (AU)2.747
period (years)3.62
P-vector [x]0.31497092
P-vector [y]0.85570984
P-vector [z]0.41055328
Q-vector [x]-0.94895101
Q-vector [y]0.27623462
Q-vector [z]0.15227084
absolute magnitude17.11
phase slope0.15
uncertainty0
referenceE2024-H23
observations used562
oppositions15
arc length (days)8623
first opposition used2000
last opposition used2024
residual rms (arc-secs)0.68
perturbers coarse indicatorM-v
perturbers precise indicator003Ek
first observation date used2000-09-07.0
last observation date used2024-04-17.0
computer nameMPCLINUX
JD of orbit computation2456909.233626
perihelion JD uncertainty (days)5.2205E-05
argument of perihelion uncertainty (°)6.0290E-05
ascending node uncertainty (°)5.8741E-05
inclination uncertainty (°)4.1232E-06
eccentricity uncertainty 3.1687E-08
perihelion distance uncertainty (AU)7.7515E-08
Minimum Orbit Intersection Distances (in AU)
for orbit epoch: 2460400.5, reference: E2024-H23
Mercury1.65686
Venus1.24482
Earth0.98093
Mars0.40632
Jupiter2.52401
Saturn7.03475
Uranus16.0017
Neptune27.6477

Observations

566 total observations over interval: 2000 09 07.33052 – 2024 03 17.596900
These data are available for download (format description).

Date (UT) J2000 RA J2000 Dec Magn Location Ref
2000 09 07.33052 00 11 03.65 -01 12 03.6 20.4 V 691 – Steward Observatory, Kitt Peak-Spacewatch MPS 123370
2000 09 07.35150 00 11 02.60 -01 12 09.0 20.2 V 691 – Steward Observatory, Kitt Peak-Spacewatch MPS 123370
2000 09 07.38506 00 11 00.92 -01 12 17.3 20.1 V 691 – Steward Observatory, Kitt Peak-Spacewatch MPS 123370
2000 10 01.21502 23 48 54.61 -03 00 25.1 19.7 R 699 – Lowell Observatory-LONEOS MPS 123370
2000 10 01.23432 23 48 53.55 -03 00 29.4   699 – Lowell Observatory-LONEOS MPS 123370
2000 10 01.25366 23 48 52.39 -03 00 34.7   699 – Lowell Observatory-LONEOS MPS 123370
2000 10 01.27298 23 48 51.15 -03 00 39.9   699 – Lowell Observatory-LONEOS MPS 123370
2002 03 16.31527 12 27 22.24 -01 20 57.7 19.8   704 – Lincoln Laboratory ETS, New Mexico MPS 123370
2002 03 16.32883 12 27 21.47 -01 20 54.2 19.8   704 – Lincoln Laboratory ETS, New Mexico MPS 123370
2002 03 16.34240 12 27 20.65 -01 20 50.4 19.7   704 – Lincoln Laboratory ETS, New Mexico MPS 123370
2002 03 16.36970 12 27 19.03 -01 20 41.4 19.9   704 – Lincoln Laboratory ETS, New Mexico MPS 123370
2004 11 20.43631 05 24 37.98 +27 08 05.5 19.5 V 691 – Steward Observatory, Kitt Peak-Spacewatch MPS 121795
2004 11 20.46377 05 24 36.62 +27 08 08.4 19.6 V 691 – Steward Observatory, Kitt Peak-Spacewatch MPS 121795
2004 11 20.49119 05 24 35.27 +27 08 10.9 19.6 V 691 – Steward Observatory, Kitt Peak-Spacewatch MPS 121795
2004 12 02.27433 05 13 31.60 +27 21 46.7 19.0   704 – Lincoln Laboratory ETS, New Mexico MPS 121795
2004 12 02.28735 05 13 30.75 +27 21 47.2 19.2   704 – Lincoln Laboratory ETS, New Mexico MPS 121795
2004 12 02.30039 05 13 29.87 +27 21 47.5 19.2   704 – Lincoln Laboratory ETS, New Mexico MPS 121795
2004 12 02.31447 05 13 28.92 +27 21 47.7 19.1   704 – Lincoln Laboratory ETS, New Mexico MPS 121795
2004 12 02.32699 05 13 28.12 +27 21 47.6 19.2   704 – Lincoln Laboratory ETS, New Mexico MPS 121795
2004 12 09.10947 05 06 01.56 +27 22 54.2 19.0 V 691 – Steward Observatory, Kitt Peak-Spacewatch MPS 122742
2004 12 09.13567 05 05 59.77 +27 22 54.4 19.0 V 691 – Steward Observatory, Kitt Peak-Spacewatch MPS 122742
2004 12 09.16123 05 05 57.98 +27 22 54.7 19.0 V 691 – Steward Observatory, Kitt Peak-Spacewatch MPS 122742
2004 12 09.26433 05 05 50.74 +27 22 54.2 18.8   704 – Lincoln Laboratory ETS, New Mexico MPS 121795
2004 12 09.28997 05 05 48.88 +27 22 54.2 19.1   704 – Lincoln Laboratory ETS, New Mexico MPS 121795
2004 12 09.30231 05 05 48.04 +27 22 53.7 18.9   704 – Lincoln Laboratory ETS, New Mexico MPS 121795
2004 12 09.31466 05 05 47.11 +27 22 54.6 18.9   704 – Lincoln Laboratory ETS, New Mexico MPS 121795
2004 12 10.96627 05 03 56.79 +27 22 20.8 19.2 R 599 – Campo Imperatore-CINEOS MPS 121795
2004 12 10.97761 05 03 56.01 +27 22 20.4 19.0 R 599 – Campo Imperatore-CINEOS MPS 121795
2004 12 10.98893 05 03 55.21 +27 22 20.9 18.2 R 599 – Campo Imperatore-CINEOS MPS 121795
2004 12 11.00027 05 03 54.41 +27 22 19.8 18.9 R 599 – Campo Imperatore-CINEOS MPS 121795
2004 12 11.26680 05 03 36.78 +27 22 14.4 19.3   704 – Lincoln Laboratory ETS, New Mexico MPS 121795
2004 12 11.28030 05 03 35.92 +27 22 14.3 19.3   704 – Lincoln Laboratory ETS, New Mexico MPS 121795
2004 12 11.29389 05 03 34.95 +27 22 13.9 19.8   704 – Lincoln Laboratory ETS, New Mexico MPS 121795
2004 12 11.30744 05 03 34.00 +27 22 13.5 19.6   704 – Lincoln Laboratory ETS, New Mexico MPS 121795
2004 12 11.32055 05 03 33.17 +27 22 13.5 19.1   704 – Lincoln Laboratory ETS, New Mexico MPS 121795
2004 12 20.14037 04 54 12.11 +27 14 44.4 19.6 V 691 – Steward Observatory, Kitt Peak-Spacewatch MPS 122742
2004 12 20.16593 04 54 10.53 +27 14 42.9 19.5 V 691 – Steward Observatory, Kitt Peak-Spacewatch MPS 122742
2004 12 20.19158 04 54 08.92 +27 14 41.3 19.5 V 691 – Steward Observatory, Kitt Peak-Spacewatch MPS 122742
2006 04 07.39465 15 14 29.24 -19 19 20.3 20.8 V 691 – Steward Observatory, Kitt Peak-Spacewatch MPS 168821
2006 04 07.41205 15 14 28.55 -19 19 19.4 21.2 V 691 – Steward Observatory, Kitt Peak-Spacewatch MPS 168821
2006 04 07.42944 15 14 27.84 -19 19 18.0 21.0 V 691 – Steward Observatory, Kitt Peak-Spacewatch MPS 168821
2006 05 04.24028 14 50 26.38 -18 10 07.7 20.6 V 691 – Steward Observatory, Kitt Peak-Spacewatch MPS 170842
2006 05 04.25763 14 50 25.29 -18 10 03.9 20.6 V 691 – Steward Observatory, Kitt Peak-Spacewatch MPS 170842
2006 05 04.27497 14 50 24.17 -18 10 00.5 20.6 V 691 – Steward Observatory, Kitt Peak-Spacewatch MPS 170842
2006 05 20.24243 14 34 42.95 -17 10 55.9 21.0 V 691 – Steward Observatory, Kitt Peak-Spacewatch MPS 172031
2006 05 20.25978 14 34 41.98 -17 10 52.0 21.3 V 691 – Steward Observatory, Kitt Peak-Spacewatch MPS 172031
2006 05 20.27712 14 34 40.98 -17 10 48.3 21.7 V 691 – Steward Observatory, Kitt Peak-Spacewatch MPS 172031
2007 10 14.14655 21 22 06.06 -17 58 42.6 20.8 V G96 – Mt. Lemmon Survey MPS 220509
2007 10 14.15549 21 22 06.20 -17 58 41.6 21.6 V G96 – Mt. Lemmon Survey MPS 220509
2007 10 14.16446 21 22 06.34 -17 58 40.1 21.1 V G96 – Mt. Lemmon Survey MPS 220509
2007 10 14.17327 21 22 06.42 -17 58 37.9 21.1 V G96 – Mt. Lemmon Survey MPS 220509
2009 02 05.41364 10 39 48.70 +12 33 30.6 20.1 V 691 – Steward Observatory, Kitt Peak-Spacewatch MPS 272517
2009 02 05.43203 10 39 47.70 +12 33 36.4 20.2 V 691 – Steward Observatory, Kitt Peak-Spacewatch MPS 272517
2009 02 05.45016 10 39 46.72 +12 33 41.6 20.3 V 691 – Steward Observatory, Kitt Peak-Spacewatch MPS 272517
2009 02 17.04477 10 28 37.57 +13 31 33.1 19.4 V J75 – OAM Observatory, La Sagra MPS 279990
2009 02 17.05781 10 28 36.80 +13 31 37.1 19.7 V J75 – OAM Observatory, La Sagra MPS 279990
2009 02 17.07124 10 28 35.95 +13 31 41.9 19.0 V J75 – OAM Observatory, La Sagra MPS 279990
2009 02 17.28262 10 28 23.30 +13 32 47.6 19.5   704 – Lincoln Laboratory ETS, New Mexico MPS 276494
2009 02 17.29408 10 28 22.51 +13 32 50.0 19.5   704 – Lincoln Laboratory ETS, New Mexico MPS 276494
2009 02 17.30547 10 28 21.71 +13 32 53.3 19.6   704 – Lincoln Laboratory ETS, New Mexico MPS 276494
2009 02 17.31690 10 28 21.00 +13 32 56.2 19.5   704 – Lincoln Laboratory ETS, New Mexico MPS 276494
2009 02 18.05878 10 27 34.78 +13 36 34.6 19.1 V J75 – OAM Observatory, La Sagra MPS 279990
2009 02 18.07167 10 27 33.91 +13 36 38.2 19.0 V J75 – OAM Observatory, La Sagra MPS 279990
2009 02 18.08487 10 27 33.05 +13 36 42.3 19.1 V J75 – OAM Observatory, La Sagra MPS 279990
2009 02 21.28244 10 24 13.77 +13 52 12.4 19.1   704 – Lincoln Laboratory ETS, New Mexico MPS 277576
2009 02 21.29499 10 24 13.04 +13 52 17.2 19.3   704 – Lincoln Laboratory ETS, New Mexico MPS 277576
2009 02 21.30714 10 24 12.16 +13 52 20.7 19.9   704 – Lincoln Laboratory ETS, New Mexico MPS 277576
2009 02 21.31910 10 24 11.41 +13 52 22.9 19.2 V G96 – Mt. Lemmon Survey MPS 277576
2009 02 21.31992 10 24 11.34 +13 52 23.0 19.3   704 – Lincoln Laboratory ETS, New Mexico MPS 277576
2009 02 21.32877 10 24 10.80 +13 52 26.3 18.2 V G96 – Mt. Lemmon Survey MPS 277576
2009 02 21.33854 10 24 10.15 +13 52 28.4 19.2 V G96 – Mt. Lemmon Survey MPS 277576
2009 02 21.34830 10 24 09.50 +13 52 31.1 19.2 V G96 – Mt. Lemmon Survey MPS 277576
2009 02 22.16328 10 23 19.00 +13 56 21.0   691 – Steward Observatory, Kitt Peak-Spacewatch MPS 277576
2009 02 22.18141 10 23 17.84 +13 56 26.3   691 – Steward Observatory, Kitt Peak-Spacewatch MPS 277576
2009 02 22.19979 10 23 16.65 +13 56 31.5   691 – Steward Observatory, Kitt Peak-Spacewatch MPS 277576
2009 02 25.31223 10 20 03.12 +14 10 39.3 19.4 V 703 – Catalina Sky Survey MPS 277576
2009 02 25.31758 10 20 02.83 +14 10 40.8 19.0 V 703 – Catalina Sky Survey MPS 277576
2009 02 25.32299 10 20 02.40 +14 10 41.9 19.2 V 703 – Catalina Sky Survey MPS 277576
2009 02 25.32840 10 20 02.04 +14 10 42.9 19.3 V 703 – Catalina Sky Survey MPS 277576
2009 02 26.17259 10 19 10.56 +14 14 22.5 19.4 V 691 – Steward Observatory, Kitt Peak-Spacewatch MPS 278630
2009 02 26.19099 10 19 09.40 +14 14 27.6 19.5 V 691 – Steward Observatory, Kitt Peak-Spacewatch MPS 278630
2009 02 26.20916 10 19 08.24 +14 14 32.2 19.5 V 691 – Steward Observatory, Kitt Peak-Spacewatch MPS 278630
2009 03 02.27508 10 15 04.34 +14 31 00.7 19.4   704 – Lincoln Laboratory ETS, New Mexico MPS 278630
